ARIANE 1 DEB, 25767

Orbit data source: Space-Track

ARIANE 1 DEB, 25767 is space debris originally from a launch on Mon, 24 Dec 1979 UTC launched from the French Guiana (FRGUI). Debris objects in space refer to the collection of defunct objects orbiting the Earth. Examples of debris include non-operational satellites, rocket bodies, and fragments generated from explosions, collisions, or faulty payload assembly.

Not visible in the next 10 days
Identifier
25767, 1979-104J
Orbit
Active
Country
Flag of FRFR
Related business
Manufacturer
Unknown
Mission
Spacecraft
Bus & Motor
Unknown
Mass
Unknown
Launch date (UTC)
1979-12-24 (46 years ago)
Launch vehicle
Unknown
Launch site
French Guiana (FRGUI)
Object type
Payload
Rocket body
Debris
Shape & HBR
Unknown shape, 0.3 m
Radar Cross Section
Medium (>0.1 m² and <1 m²)

Expand to show TLE details & history
Last TLE update: 13 hours ago

TLE from 13 hours ago
0 ARIANE 1 DEB
1 25767U 79104J   25295.42969882  .00119462  00000-0  78496-2 0  9998
2 25767  17.8056 220.3621 2516760  59.8026 322.7869 10.26617121358403
Epoch: 2025-10-22T10:18Z
TLE epoch observation values (Epoch: 2025-10-22T10:18:45.978Z)
Latitude
0.00001°
Longitude
34.56714°
Altitude
1,054.077 km
Speed
7.919 km/s
True Right ascension
14h 41m 26s
True Declination
0° 00' 00"
Sunlit
Object was in daylight at epoch
Visualization orbit readout
Latitude
Unknown
Longitude
Unknown
Altitude
Unknown
Speed
Unknown
Apparent Right ascension
Unknown
Apparent Declination
Unknown
Sunlit
N/A
Visualization observer readout
Local Sidereal Time
18:02:05
Azimuth
Unknown
Elevation
Unknown
Doppler factor
Unknown
Orbital elements
Apogee altitude
4,820.931 km
Perigee altitude
317.311 km
Semi-major axis
8,947.258 km
Eccentricity
0.25168
Inclination
17.8056°
RAAN
220.3621°
Arg. of periapsis
59.8026°
True anomaly
300.23096°
Mean anomaly
322.7869°
Eccentric anomaly
312.08512°
Mean motion
2.56453 °/min
Orbital period
140.38 mins
BSTAR
0.0078496
Loading maneuver chart data...
Computing Atmospheric mass density...
Loading historical data...
Loading historical data...
Loading historical data...
Loading historical data...
Loading historical data...
Loading historical data...
Loading historical data...

Documentation

Showing up to 5 results
|